Simultaneous Nadir Overpasses (SNOs) Predictions

Prediction of SNOs between GOES-14 and NOAA-20 Satellite Orbit:

Table of predicted SNOs for the next 14.0 days since TLE Epoch: 5/1/2021
Index Date Time (GOES-14) GOES-14 Lat,Lon NOAA-20 Lat,Lon Distance(km) Time Diff (sec)
1 05/01/2021 08:20:29 0.15,-104.22 -0.02,-103.57 75.07 80
2 05/03/2021 20:23:42 -0.15,-104.32 -0.15,-104.35 3.81 80
3 05/06/2021 08:24:06 0.15,-104.21 0.32,-105.09 100.30 80
4 05/07/2021 08:08:01 0.16,-104.22 -0.68,-100.56 416.82 80
5 05/08/2021 20:29:58 -0.14,-104.33 -0.49,-105.87 175.74 80
6 05/09/2021 20:08:34 -0.15,-104.33 0.52,-101.34 340.15 80
7 05/11/2021 08:30:22 0.13,-104.21 0.65,-106.62 274.02 80
8 05/12/2021 08:14:18 0.14,-104.22 -0.35,-102.09 243.02 80
9 05/13/2021 20:36:15 -0.12,-104.35 -0.81,-107.40 347.70 80
10 05/14/2021 20:14:51 -0.13,-104.35 0.19,-102.87 168.08 80
